Gwinn, MI

1:36 AM EDT on September 26, 2016 (GMT -0400)
Sawyer International

Weather History for KSAW - March, 2013

Change the Weather History Date:

Wednesday, March 13, 2013

  Actual Average (KESC) Record (KESC)
Temperature  
Mean Temperature 19 °F -  
Max Temperature 26 °F 34 °F 59 °F (2012)
Min Temperature 12 °F 18 °F -9 °F (2014)
Degree Days  
Heating Degree Days 46    
Moisture  
Dew Point 13 °F    
Average Humidity 76    
Maximum Humidity 89    
Minimum Humidity 43    
Precipitation  
Precipitation 0.00 in - - ()
Sea Level Pressure  
Sea Level Pressure 30.01 in    
Wind  
Wind Speed 15 mph (NNW)    
Max Wind Speed 23 mph    
Max Gust Speed 30 mph    
Visibility 7 miles    
Events Snow    
Averages and records for this station are not official NWS values.
T = Trace of Precipitation, MM = Missing Value Source: NWS Daily Summary

Daily Weather History Graph

Daily Weather History Graph

Search for Another Location

Airport or City:

Trip Planner

Search our weather history database for the weather conditions in past years. The results will help you decide how hot, cold, wet, or windy it might be!

Date:

Astronomy

Mar. 13, 2013 Rise Set
Actual Time 8:05 AM EDT 7:52 PM EDT
Civil Twilight 7:35 AM EDT 8:22 PM EDT
Nautical Twilight 7:00 AM EDT 8:57 PM EDT
Astronomical Twilight 6:25 AM EDT 9:33 PM EDT
Moon 8:36 AM EDT (3/13) 10:20 PM EDT (3/13)
Length of Visible Light 12h 47m
Length of Day
11h 47m
Waxing Crescent, 4% of the Moon is Illuminated
Mar 13
Waxing Crescent
Mar 19
First Quarter
Mar 27
Full
Apr 3
Last Quarter
Apr 10
New

Hourly Weather History & Observations

Time (EDT) Temp. Windchill Dew Point Humidity Pressure Visibility Wind Dir Wind Speed Gust Speed Precip Events Conditions
12:17 AM 20.8 °F 4.7 °F 18.1 °F 89% 29.84 in 1.0 mi North 21.9 mph 29.9 mph N/A Snow Snow
12:36 AM 20.5 °F 5.0 °F 17.8 °F 89% 29.84 in 0.8 mi North 19.6 mph 29.9 mph N/A Snow Snow
12:56 AM 20.3 °F 5.2 °F 17.4 °F 89% 29.85 in 1.2 mi North 18.4 mph - N/A Snow Light Snow
1:17 AM 20.1 °F 3.4 °F 16.3 °F 85% 29.86 in 1.2 mi North 23.0 mph 27.6 mph N/A Snow Light Snow
1:36 AM 19.9 °F 5.7 °F 15.8 °F 84% 29.86 in 1.5 mi North 16.1 mph - N/A Snow Light Snow
1:57 AM 19.8 °F 5.9 °F 16.2 °F 86% 29.87 in 2.0 mi North 15.0 mph 20.7 mph N/A Snow Light Snow
2:17 AM 19.6 °F 6.8 °F 16.3 °F 87% 29.87 in 2.0 mi North 12.7 mph 17.3 mph N/A Snow Light Snow
2:36 AM 19.4 °F 6.6 °F 16.2 °F 87% 29.87 in 3.0 mi NNW 12.7 mph 17.3 mph N/A Snow Light Snow
2:57 AM 19.9 °F 6.2 °F 15.8 °F 84% 29.88 in 3.0 mi North 15.0 mph - N/A Snow Light Snow
3:17 AM 19.8 °F 6.5 °F 15.4 °F 83% 29.88 in 4.0 mi NNW 13.8 mph 19.6 mph N/A Snow Light Snow
3:36 AM 19.8 °F 7.1 °F 14.9 °F 81% 29.89 in 4.0 mi NNW 12.7 mph - N/A Snow Light Snow
3:57 AM 19.2 °F 7.0 °F 14.5 °F 82% 29.90 in 7.0 mi NNW 11.5 mph - N/A Snow Light Snow
4:17 AM 18.7 °F 7.0 °F 14.9 °F 85% 29.90 in 7.0 mi NW 10.4 mph - N/A Snow Light Snow
4:36 AM 18.5 °F 6.1 °F 14.7 °F 85% 29.90 in 7.0 mi NW 11.5 mph - N/A Snow Light Snow
4:57 AM 19.0 °F 6.8 °F 13.8 °F 80% 29.90 in 7.0 mi NNW 11.5 mph 16.1 mph N/A Snow Light Snow
5:16 AM 19.2 °F 5.3 °F 13.1 °F 77% 29.91 in 10.0 mi NNW 15.0 mph 20.7 mph N/A Snow Light Snow
5:37 AM 19.2 °F 6.4 °F 12.4 °F 75% 29.92 in 7.0 mi NNW 12.7 mph 24.2 mph N/A   Overcast
5:57 AM 19.0 °F 5.6 °F 12.2 °F 75% 29.93 in 10.0 mi NNW 13.8 mph 21.9 mph N/A   Overcast
6:50 AM 17.6 °F 5.0 °F 10.4 °F 73% 29.95 in 10.0 mi NNW 11.5 mph 18.4 mph N/A   Mostly Cloudy
7:50 AM 17.6 °F 3.7 °F 10.4 °F 73% 29.97 in 10.0 mi NNW 13.8 mph 18.4 mph N/A   Overcast
8:50 AM 14.0 °F 2.0 °F 10.4 °F 86% 30.00 in 10.0 mi NW 9.2 mph - N/A   Scattered Clouds
9:55 AM 17.6 °F 2.7 °F 10.4 °F 73% 30.03 in 10.0 mi NNW 16.1 mph 28.8 mph N/A   Scattered Clouds
11:50 AM 19.4 °F 3.2 °F 12.2 °F 74% 30.08 in 10.0 mi North 20.7 mph 27.6 mph N/A   Scattered Clouds
12:50 PM 21.2 °F 5.6 °F 12.2 °F 68% 30.10 in 10.0 mi NNW 20.7 mph - N/A   Scattered Clouds
1:50 PM 23.0 °F 9.6 °F 10.4 °F 59% 30.11 in 10.0 mi NNW 16.1 mph 23.0 mph N/A   Clear
2:50 PM 24.8 °F 13.4 °F 10.4 °F 54% 30.11 in 10.0 mi NW 12.7 mph 20.7 mph N/A   Clear
3:55 PM 26.6 °F 15.7 °F 6.8 °F 43% 30.11 in 10.0 mi North 12.7 mph - N/A   Clear
4:50 PM 26.6 °F 13.4 °F 8.6 °F 47% 30.13 in 10.0 mi NNW 18.4 mph - N/A   Clear
5:50 PM 26.6 °F 16.2 °F 12.2 °F 55% 30.14 in 10.0 mi NNW 11.5 mph - N/A   Clear
6:50 PM 24.8 °F 12.9 °F 14.0 °F 64% 30.16 in 10.0 mi NNW 13.8 mph - N/A   Clear
7:50 PM 23.0 °F 12.4 °F 12.2 °F 63% 30.17 in 10.0 mi NNW 10.4 mph 18.4 mph N/A   Clear
8:50 PM 19.4 °F - 12.2 °F 74% 30.17 in 10.0 mi Calm Calm - N/A   Clear
9:48 PM 17.6 °F - 10.4 °F 73% 30.17 in 10.0 mi Calm Calm - N/A   Clear
10:17 PM 16.5 °F 9.4 °F 10.8 °F 78% 30.17 in 10.0 mi WNW 4.6 mph - N/A   Clear
10:36 PM 14.4 °F 8.6 °F 10.0 °F 83% 30.17 in 10.0 mi NW 3.5 mph - N/A   Clear
10:57 PM 15.3 °F 7.9 °F 10.4 °F 81% 30.17 in 10.0 mi WNW 4.6 mph - N/A   Clear
11:17 PM 13.6 °F 6.0 °F 9.1 °F 82% 30.17 in 10.0 mi West 4.6 mph - N/A   Clear
11:36 PM 12.2 °F 2.9 °F 8.1 °F 83% 30.17 in 10.0 mi WNW 5.8 mph - N/A   Clear
11:57 PM 15.8 °F 8.6 °F 11.1 °F 82% 30.17 in 10.0 mi WNW 4.6 mph - N/A   Clear